Location: Bear Valley Community Church - Hurst
(32.8460°N, 97.1828°W)
Time: 06:29:35
(UTC+00:00)

Cosmos 1328 Rocket - Pass Details

Date: 06 July 2022
Orbit: 600 x 627 km, 82.5° (Epoch: 14 August)

Event Time Altitude Azimuth Distance (km) Brightness Sun altitude
Rises 07:34:19 0° 14° (NNE) 2,894 8.1 -32.6°
Reaches altitude 10° 07:37:19 10° 36° (NE) 1,978 6.9 -32.4°
Enters shadow 07:39:46 16° 70° (ENE) 1,600 6.0 -32.3°
